Regional Weather Roundup
Issued by NWS Sterling, VA

Home | Current Version | Previous Version | Graphics & Text | Print | Product List | Glossary On
Versions: 1 2 3 4 5 6 7 8 9 10 11 12 13 14 15 16 17 18 19 20 21 22 23 24 25 26 27 28 29 30 31 32 33 34 35 36 37 38 39 40 41 42 43 44 45 46 47 48 49 50
000
ASUS41 KLWX 230510
RWRLWX

REGIONAL WEATHER ROUNDUP
NATIONAL WEATHER SERVICE BALTIMORE MD/WASHINGTON DC
100 AM EDT SAT MAY 23 2015

Note: "FAIR" indicates few or no clouds below 12,000 feet
with no significant weather and/or obstructions to visibility.
 TC=TEMPERATURE CELSIUS

 * =Non NWS site. Station does not report precipitation (e.g. rain,
    snow, etc.), thunder, or fog.

DCZ001-MDZ009-015-VAZ040>042-051-053>054-230600-
WASHINGTON METRO

CITY           SKY/WX    TMP DP  RH WIND       PRES   REMARKS
WASHINGTON NAT PTCLDY    66  42  41 NW12      30.26R
DULLES         CLEAR     58  34  40 NW6       30.28R
ANDREWS AFB    PTCLDY    61  42  50 NW12      30.25R
FT BELVOIR     CLEAR     63  45  52 NW6       30.26R
QUANTICO       PTCLDY    63  45  51 N14       30.27R
COLLEGE PARK*  PTCLDY    61  36  39 N5        30.26R
LEESBURG*      CLEAR     61  34  36 NW10      30.29R
MANASSAS*      CLEAR     59  48  67 NW9       30.28R
GAITHERSBURG*  CLEAR     55  34  44 NW3       30.30S

$$

MDZ006>007-011-014-230600-
BALTIMORE METRO

CITY           SKY/WX    TMP DP  RH WIND       PRES   REMARKS
BWI AIRPORT    PTCLDY    59  31  34 NW6       30.26R
MD SCIENCE CTR   N/A     63  27  25 MISG      30.27R
MARTIN STATE   CLEAR     55  32  41 W9        30.28R
ANNAPOLIS      CLEAR     65  39  38 NW15      30.23R
FORT MEADE*    CLEAR     57  34  41 NW8       30.28R

$$

MDZ012-015-019>023-230600-
MARYLAND EASTERN SHORE

CITY           SKY/WX    TMP DP  RH WIND       PRES   REMARKS
OCEAN CITY     CLEAR     60  50  69 NW6       30.21R
SALISBURY      CLEAR     60  49  66 W6        30.22R
BAY BRIDGE AP*   N/A    N/A N/A N/A NW14G21   30.24R
CAMBRIDGE*     CLEAR     64  45  48 NW8       30.24R
EASTON*        CLEAR     64  41  44 N6        30.27R

$$

MDZ017>025-230600-
SOUTHERN MARYLAND

CITY           SKY/WX    TMP DP  RH WIND       PRES   REMARKS
PATUXENT RIVER MOCLDY    65  47  52 W8        30.23R
ST INIGOES     PTCLDY    66  51  58 NW7       30.23R
LEONARDTOWN*   MOCLDY    59  46  63 CALM      30.25S

$$

MDZ003>005-230600-
NORTH CENTRAL MARYLAND

CITY           SKY/WX    TMP DP  RH WIND       PRES   REMARKS
FREDERICK*     CLEAR     52  36  54 NW8       30.32R
HAGERSTOWN APT CLEAR     54  25  32 NW14      30.30R
WESTMINSTER*   PTCLDY    55  25  30 NW6       30.28R

$$

MDZ501>502-230600-
WESTERN MARYLAND

CITY           SKY/WX    TMP DP  RH WIND       PRES   REMARKS
OAKLAND*       CLEAR     41  30  65 N5        30.32R
CUMBERLAND*    CLEAR     54  28  37 NE3       30.36R

$$

VAZ025>031-230600-
SHENANDOAH VALLEY

CITY           SKY/WX    TMP DP  RH WIND       PRES   REMARKS
WINCHESTER*    CLEAR     55  27  33 NW8       30.30R
FRONT ROYAL*   MOCLDY    55  46  71 CALM      30.29R
LURAY*         FAIR      57  50  77 N7        30.29R
NEW MARKET*    FAIR      52  47  84 N3        30.28R
STAUNTON*      PTCLDY    55  44  66 CALM      30.30R
WAYNESBORO*    FAIR      58  41  53 W7        30.29R

$$

WVZ021-048>050-054>055-230600-
EASTERN WEST VIRGINIA PANHANDLE

CITY           SKY/WX    TMP DP  RH WIND       PRES   REMARKS
MARTINSBURG    FAIR      56  29  35 CALM      30.30R
PETERSBURG*    PTCLDY    52  46  79 CALM      30.34R

$$

VAZ036>039-050-230600-
CENTRAL FOOTHILLS

CITY           SKY/WX    TMP DP  RH WIND       PRES   REMARKS
CHARLOTTESVILL PTCLDY    61  42  49 VRB3      30.26R
CULPEPER*      CLEAR     51  47  86 CALM      30.28R
ORANGE*        PTCLDY    54  50  87 CALM      30.27S
GORDONSVILLE*  FAIR      53  47  81 CALM      30.25S
WARRENTON*     MOCLDY    59  51  74 NW9       30.27R

$$

VAZ055>057-230600-
NORTH AND CENTRAL PIEDMONT

CITY           SKY/WX    TMP DP  RH WIND       PRES   REMARKS
FREDERICKSBRG* PTCLDY    58  53  83 CALM      30.25R
STAFFORD*      PTCLDY    52  48  86 NW7       30.29R

$$

NCZ024-NYZ072-PAZ021-071-VAZ022-071-230600-
OTHER REGIONAL OBSERVATIONS

CITY           SKY/WX    TMP DP  RH WIND       PRES   REMARKS
NEW YORK CITY  CLEAR     59  32  36 NW12G23   30.20R
PHILADELPHIA   CLEAR     62  26  25 NW8       30.21R
PITTSBURGH     PTCLDY    48  27  44 CALM      30.32F
ROANOKE        CLEAR     55  43  63 W6        30.33R
RICHMOND       PTCLDY    56  48  74 CALM      30.25R
RALEIGH        PTCLDY    52  47  83 CALM      30.29R

$$

ANZ530>537-230600-
MARINE OBSERVATIONS

STATION/POSITION TIME  TEMP    WIND        PRES
                       AIR SEA DIR/SP/G
                 (UTC) (F)     (DEG/KT/KT) (MB)
THOMAS PT LIGHT  0500   65 64  320/ 13/ 15 1024.6R
BALT KEY BRIDGE  0400   65     280/ 10/ 11 1023.2R
LEWISETTA        0400   64 69              1023.5R
SOLOMONS ISLAND  0400      68                N/A
PINEY POINT      0400          300/  9/ 11   N/A

$$



USA.gov is the U.S. government's official web portal to all federal, state and local government web resources and services.